User: anonymous   Login
Location: SAPM � Hemmingford
(45.0500°N, 73.5833°W)
Time: 04:41:26
(UTC-04:00)
Language:

Cosmos 1603 - Orbit

View from above orbital plane
View from above orbital plane
View from above satellite
View from above satellite

Ground track
Ground track

The orbit data is extracted from the following two-line orbital elements,

1 15333U 84106A   16274.45023220 -.00000137  00000-0 -47160-4 0  9997
2 15333  71.0259 276.2490 0022004 246.2915 113.5899 14.14047030651549
Epoch (UTC): 30 September 2016 10:48:20
Eccentricity: 0.0022004
inclination: 71.0259°
perigee height: 829 km
apogee height: 861 km
right ascension of ascending node: 276.2490°
argument of perigee: 246.2915°
revolutions per day: 14.14047030
mean anomaly at epoch: 113.5899°
orbit number at epoch: 65154

The dashed part of the orbit path shows where the satellite is in the earth's shadow,  

DLR